User: anonymous   Login
Location: Albany
(35.0000°S, 118.0000°E)
Time: 19:23:45
(UTC-04:00)
Language:

Centaur D-1AR AC-48 - Orbit

View from above orbital plane
View from above orbital plane
View from above satellite
View from above satellite

Ground track
Ground track

The orbit data is extracted from the following two-line orbital elements,

1 10779U 78035B   17141.80410230 -.00000257 +00000-0 -95049-3 0  9995
2 10779 021.6753 077.1978 7191490 359.0652 003.1476 02.22661948318092
Epoch (UTC): 21 May 2017 19:17:54
Eccentricity: 0.7191490
inclination: 21.6753°
perigee height: 579 km
apogee height: 36209 km
right ascension of ascending node: 77.1978°
argument of perigee: 359.0652°
revolutions per day: 2.22661948
mean anomaly at epoch: 3.1476°
orbit number at epoch: 31809

The dashed part of the orbit path shows where the satellite is in the earth's shadow,  

DLR